Tracking 35334 objects as of 12-Sep-2026
HD Live streaming from Space Station
objects crossing your sky now

FLOCK 4P 6


FLOCK 4P 6 is no longer on orbit
FLOCK 4P 6 is classified as:


NORAD ID: 44817
Int'l Code: 2019-081P
Launch date: November 27, 2019
Source: United States (US)
Launch site: SRIHARIKOTA (SRI)
Decay date: 2023-07-18
Your satellite tracking list
Your tracking list is empty




NASA's NSSDC Master Catalog

Two Line Element Set (TLE):
1 44817U 19081P   23196.59696014  .14030804  25253-5  50079-3 0  9990
2 44817  97.3321 273.1325 0014254 261.7326  98.2359 16.42943068202639
Source of the keplerian elements: AFSPC